Starlink 5631

operational
NORAD ID: 55346 Int'l Des: 2023-013 Owner: SPXS Country: US Constellation: starlink
LEOCIRCULAR

关于 Starlink 5631

正在加载描述...

实时位置

正在加载3D地球...

即将过境

高度历史

Altitude vs Time

uPlot chart will show altitude changes over time

两行轨道根数

1 55346U 23013R 26033.35524240 -.00000046 00000-0 11661-4 0 9991
2 55346 43.0032 132.3763 0000304 267.3137 92.7670 15.02546444166399
Epoch: Feb 2, 2026 • Age: 20 hours

当前状态

高度 572.2 km
速度 7.58 km/s
星下点 -43.13°S, 171.18°W
发射日期 Jan 26, 2023
运行时间 3 years
类型 internet

技术详情

分类 Payload
质量 305.00 kg
干质量 290.00 kg
总质量 305.00 kg
长度 0.20 m
直径 2.80 m
跨度 9.00 m
形状 Box + pan
制造商 SPXS
平台类型 Starlink
阶段状态 In Orbit
所有者/国家 SPXS/US

大型星座

Loading constellations...